Regional Weather Roundup
Issued by NWS Wakefield, VA

Home | Current Version | Previous Version | Graphics & Text | Print | Product List | Glossary On
Versions: 1 2 3 4 5 6 7 8 9 10 11 12 13 14 15 16 17 18 19 20 21 22 23 24 25 26 27
000
ASUS41 KAKQ 260715
RWRAKQ

REGIONAL WEATHER ROUNDUP
NATIONAL WEATHER SERVICE WAKEFIELD VA
300 AM EDT FRI AUG 26 2016

Note: "fair" indicates few or no clouds below 12,000 feet with no
significant weather and/or obstructions to visibility. * = Denotes
station may not report precipitation (e.g., rain,snow,etc.),
thunder or fog.

VAZ042-051-052>054-056-260800-
NORTHERN VIRGINIA

CITY           SKY/WX    TMP DP  RH WIND       PRES   REMARKS
WASH NATIONAL  FAIR      79  74  84 S8        30.01F
DULLES         FAIR      76  73  91 S5        30.02S
FORT BELVOIR   FAIR      73  72  96 CALM      30.01S FOG
QUANTICO       FAIR      77  74  90 NW3       30.02
FREDERICKSBRG* FAIR      74  74 100 CALM      30.02R
STAFFORD*      FAIR      71  70  96 CALM      30.07R FOG
WARRENTON      HAZE      73  68  86 CALM      30.03S VSB 3/4
CULPEPER*      MOCLDY    73  73 100 CALM      30.04S FOG
MANASSAS*      FAIR      73  73 100 CALM      30.02S
LEESBURG*      FAIR      77  77 100 SW3       30.03S
WINCHESTER     FAIR      77  72  83 SW3       30.04S
FRONT ROYAL*   FAIR      73  72  94 S5        30.05R
LURAY*         FAIR     N/A N/A N/A SW5       30.07S
$$

VAZ048-049-060>072-079>083-260800-
CENTRAL AND SOUTH CENTRAL VIRGINIA

CITY           SKY/WX    TMP DP  RH WIND       PRES   REMARKS
RICHMOND       FAIR      74  70  87 S5        30.04S
CHESTERFIELD*  FAIR      75  59  57 CALM      30.06S
PETERSBURG*    FAIR      74  74 100 S3        30.06S
HANOVER        FAIR      76  70  82 S5        30.05S
TAPPAHANNOCK*  FAIR      75  74  99 S5        30.05S
QUINTON*       FAIR      75  72  88 S3        30.04S
CHARLOTTSVILLE FAIR      76  73  91 CALM      30.06R
GORDONSVILLE*  NOT AVBL
ORANGE*          N/A     77  77 100 CALM      30.06S
LOUISA*        FAIR      79  75  89 SW3       30.04R
BUMPASS*       FAIR      74  73  95 CALM      30.04R
FARMVILLE*     FAIR     N/A N/A N/A SW3       30.04S
CREWE*         FAIR      72  72 100 CALM      30.05S
FORT PICKETT*  FAIR      72  71  98 S6        30.06S
CHASE CITY*    FAIR      73  71  95 CALM      30.08R
CLARKSVILLE*   FAIR      73  72  94 SW3       30.07S
SOUTH HILL*    FAIR      71  70  97 SW3       30.13R
LAWRENCEVILLE* FAIR      73  71  92 S3        30.07S
EMPORIA*         N/A     72  70  94 SE3       30.08S
$$

VAZ088>098-260800-
SOUTHEAST VIRGINIA

CITY           SKY/WX    TMP DP  RH WIND       PRES   REMARKS
NORFOLK        FAIR      76  68  76 SW13      30.06S
VIRGINIA BEACH FAIR      80  67  64 SW8       30.06S
NORFOLK NAVAL  FAIR      76  68  76 SW8       30.07S
WEST POINT*    FAIR      76  70  82 SE5       30.06S
SALUDA*        FAIR      76  72  87 S8        30.04R
NEWPORT NEWS   MOCLDY    77  69  76 SW12      30.06S
LANGLEY AFB    FAIR      77  69  76 SW12      30.05S
FORT EUSTIS    FAIR      76  70  81 S5        30.03S
WILLIAMSBURG*  FAIR      79  72  78 S6        30.06S
HR EXEC AP*    PTSUNNY   73  68  83 SW6       30.09S
FRANKLIN*      FAIR      73  68  84 S6        30.08R
US460-WAKEFLD  FAIR      74  69  85 S6        30.06S
$$

VAZ020-022-025-037-045-260800-
WEST CENTRAL AND SOUTHWEST VIRGINIA

CITY           SKY/WX    TMP DP  RH WIND       PRES   REMARKS
STAUNTON*      FAIR      69  69  98 CALM      30.13R FOG
WAYNESBORO*    FAIR      70  69  95 CALM      30.13R
HOT SPRINGS VA FAIR      69  69 100 W10       30.26R FOG
LYNCHBURG      FAIR      72  71  97 CALM      30.10S
DANVILLE       FAIR      73  72  96 CALM      30.09R
SOUTH BOSTON*  FAIR      74  73  95 SW3       30.07S
MARTINSVILLE   FAIR      68  67  97 CALM      30.14R FOG
ROANOKE        FAIR      74  70  87 CALM      30.14R
BLACKSBURG       N/A     70  70 100 CALM      30.22S FOG
DUBLIN*        FAIR      71  70  97 SW5       30.21R
MARION*        MOCLDY    68  67  96 CALM      30.25S FOG
HILLSVILLE*    FAIR      71  69  95 CALM      30.22S
RICHLANDS*     FAIR      70  70 100 CALM      30.24S
WISE*          FAIR      70  68  94 CALM      30.25R
ABINGDON*      FAIR      71  71 100 CALM      30.20S FOG
$$

MDZ021>025-VAZ099-100-260800-
SOUTHERN MARYLAND AND THE DELMARVA PENINSULA

CITY           SKY/WX    TMP DP  RH WIND       PRES   REMARKS
PATUXENT RIVER FAIR      78  70  76 SW12      30.02S
BAY BRIDGE APT FAIR      79  73  83 S5        30.00F
LEONARDTOWN    FAIR      77  70  78 SW6       30.04S
DOVER          FAIR      74  74 100 S7        30.00S
GEORGETOWN     FAIR      73  70  90 SW6       30.04R
EASTON         FAIR      78  78  99 SW5       30.05S
CAMBRIDGE      FAIR      77  73  88 S3        30.02S
SALISBURY      FAIR      72  70  93 S5        30.04R
OCEAN CITY     FAIR      78  70  76 SW9       30.04S
WALLOPS ISLAND FAIR      76  68  76 SW10      30.05S
ACCOMACK*      FAIR      76  68  78 S8        30.05S
$$

NCZ012>017-030>032-260800-
NORTH CENTRAL AND EASTERN NORTH CAROLINA

CITY           SKY/WX    TMP DP  RH WIND       PRES   REMARKS
ROANOKE RAPIDS FAIR      70  68  94 S5        30.08R
RALEIGH        FAIR      74  69  85 SW6       30.09S
ELIZABETH CITY FAIR      71  68  90 S3        30.08S
AHOSKIE*       FAIR      71  68  90 CALM      30.09R
EDENTON*       FAIR      78  68  71 SW5       30.09S
CURRITUCK*       N/A     74  70  87 CALM      30.08S
KILL DEVIL HLS FAIR      76  72  85 SW5       30.07S
MANTEO         FAIR      78  69  73 SW10      30.09R
CAPE HATTERAS  FAIR      79  65  62 S5        30.08S
TARBORO*       FAIR      73  68  84 CALM      30.10R
GOLDSBORO      FAIR      74  71  93 S2        30.08S
WASHINGTON     FAIR      73  68  86 SW3       30.09S
GREENVILLE     FAIR      72  70  94 SW5       30.11S
NEW BERN       FAIR      71  68  90 CALM      30.10F
WILMINGTON     FAIR      71  68  90 CALM      30.09S
$$

VAZ048-260800-
ELSEWHERE

CITY           SKY/WX    TMP DP  RH WIND       PRES   REMARKS
HARRISBURG PA  MOCLDY    79  75  87 VRB5      29.97F
BALTIMORE      FAIR      76  72  87 S3        30.00S
ANNAPOLIS      FAIR      79  73  82 CALM      30.00S
ANDREWS AFB    FAIR      76  72  86 S7        30.01S
PHILADELPHIA   FAIR      76  69  79 SW8       30.01R
HENDERSON NC   FAIR      70  68  93 SW3       30.09R
GREENSBORO     FAIR      75  71  87 SW6       30.10S
ROCKY MOUNT    FAIR      74  70  87 S6        30.09R
$$

VAZ100-260800-
MARINE

STATION/POSITION TIME  TEMP    WIND        PRES    WAVE   SWELL
                       AIR SEA DIR/SP/G            HT/PER HT/PER
                 (UTC) (F)     (DEG/KT/KT) (MB)    (FT/S) (FT/S)
BRANDYWINE LGT   0600   75     220/ 16/ 18   N/A
CAPE MAY NJ      0600   74 75  180/  5/  7 1016.1F
LEWES DE         0600   76 73  220/  6/ 10 1016.4F
OCEAN-CITY-INLET 0600   76 74  220/ 12/ 13 1017.5F
WACHAPREAGUE VA  0600   78 81  210/  9/ 14 1017.6S
THOMAS POINT MD  0700   80 81  190/ 10/ 11 1017.5S
GOOSES REEF MD   0700   81 82  220/ 10/ 12 1016.9S   1/ 2
COVE POINT MD    0600   79     220/  9/ 12 1017.1S
SOLOMONS ISLAND  0600   80 84  220/  4/  8   N/A
BISHOPS HEAD MD  0600   81 81  200/  9/ 10 1017.2R
PINEY POINT MD   0600          230/ 12/ 13   N/A
POTOMAC MD       0700   80 83  230/ 14/ 16 1015.8R   2/ 3
CAMBRIDGE MD     0600   78 83  180/  6/  8 1015.8S
LEWISETTA VA     0600   78 82  230/ 10/ 12 1016.4S
RAPPAHANNOCK LGT 0600          200/ 18/ 20 1017.9F
STINGRAY PT      0700   80 83  150/ 14/ 16 1017.4F   2/ 3
YORK RVR RNG VA  0600   79     210/ 14/ 17 1016.9F
YORKTOWN VA      0600   78 83  210/ 12/ 15 1016.8F
JAMESTOWN VA     0700   77 84  200/  8/ 12   N/A     1
DOMINION TERM VA 0600   78     220/ 14/ 17 1017.7F
KIPTOPEKE VA     0600      79  200/ 12/ 14   N/A
CHES BAY BRIDGE  0600   78 80  180/ 13/ 14 1017.6F
CAPE HENRY VA    0600   76     190/  8/ 12   N/A
WILLOUBY STN VA  0600   78     210/ 15/ 17   N/A
CAPE HENRY BUOY  0612      79                N/A     3/ 9
1ST LANDING BUOY 0700   78 78  230/ 14/ 16 1017.6S   2/ 3
CAPE CHARLES BUO 0626      77                N/A     3/ 9
OFFSHORE WE BUOY 0621      80                N/A     3/ 9
64NM E OF VA BCH 0650   80 80  200/ 12/ 14 1018.1F   3/ 9   2/ 9
DUCK PIER NC     0600   79 79  200/ 10/ 13 1017.9S
44100 DUCK FRF   0605      79                N/A     2/ 8
44056 DUCK FRF   0611      78                N/A     2/ 8
OREGON INLET NC  0600   78 80  170/  6/  8 1018.6S
HATTERAS NC      0600   80 81  150/  6/  7 1018.4F
DIAMOND SHLS NC  0650   80 83  190/  2/  4 1018.8R   3/ 9   3/ 9
CAPE LOOKOUT NC  0700   80     150/  6/  7 1018.6S
$$




USA.gov is the U.S. government's official web portal to all federal, state and local government web resources and services.